Tracking 19177 objects as of 25-May-2018
HD Live streaming from Space Station
objects crossing your sky now

FENGYUN 1C DEB

Track FENGYUN 1C DEB now!
10-day predictions


NORAD ID: 30497
Int'l Code: 1999-025AHK
Perigee: 561.1 km
Apogee: 622.0 km
Inclination: 99.1 °
Period: 96.4 minutes
Semi major axis: 6962 km
RCS: 0.024 m2 (small)
Launch date: May 10, 1999
Source: People's Republic of China (PRC)
Launch site: Taiyaun Space Center, China (TSC)

Note: This is SATELLITE DEBRIS
aabbcc
Your satellite tracking list
Your tracking list is empty




NASA's NSSDC Master Catalog

Two Line Element Set (TLE):
1 30497U 99025AHK 18144.56172061 +.00007454 +00000-0 +68696-3 0  9992
2 30497 099.1277 173.5109 0043757 275.7659 236.0503 14.94339997598563
Source of the keplerian elements: AFSPC